THY628 OMDB-OIIE

Flight info

Callsign THY628
Flight time 1h 41m
Altitude 40000
Route DAVMO M318 GABKO M317 RADEB M318 ASMUK W32 ROVAD/N0435F280 G208 RADAL
Aircraft A359/H-SDE2E3GHIJ3J4J5LM1ORWXY/LB1D1

Departure

Time 2026-05-07 00:27
Airport Dubai International Airport (OMDB)

Arrival

Time 2026-05-07 02:09
Airport Imam Khomeini International Airport (OIIE)
Time Latitude Longitude Altitude Speed Heading
2026-05-06 23:42 25.25781 55.34697 28 ft 0 kts 211°
2026-05-07 00:14 25.25796 55.34707 27 ft 4 kts 211°
2026-05-07 00:14 25.25816 55.34720 27 ft 4 kts 211°
2026-05-07 00:15 25.25839 55.34735 26 ft 4 kts 211°
2026-05-07 00:15 25.25859 55.34748 25 ft 4 kts 184°
2026-05-07 00:15 25.25874 55.34739 27 ft 4 kts 109°
2026-05-07 00:15 25.25883 55.34712 27 ft 2 kts 120°
2026-05-07 00:16 25.25885 55.34707 27 ft 1 kts 121°
2026-05-07 00:16 25.25886 55.34707 27 ft 0 kts 121°
2026-05-07 00:18 25.25885 55.34708 27 ft 3 kts 121°
2026-05-07 00:18 25.25861 55.34797 27 ft 20 kts 95°
2026-05-07 00:18 25.25852 55.34934 27 ft 18 kts 102°
2026-05-07 00:19 25.25795 55.35057 27 ft 19 kts 122°
2026-05-07 00:19 25.25725 55.35187 27 ft 20 kts 120°
2026-05-07 00:19 25.25648 55.35320 27 ft 21 kts 123°
2026-05-07 00:19 25.25566 55.35463 27 ft 23 kts 122°
2026-05-07 00:20 25.25483 55.35615 27 ft 24 kts 121°
2026-05-07 00:20 25.25396 55.35770 27 ft 22 kts 122°
2026-05-07 00:20 25.25314 55.35914 27 ft 22 kts 122°
2026-05-07 00:20 25.25230 55.36064 28 ft 24 kts 122°
2026-05-07 00:21 25.25141 55.36221 28 ft 25 kts 122°
2026-05-07 00:21 25.25048 55.36387 28 ft 26 kts 122°
2026-05-07 00:21 25.24952 55.36558 28 ft 26 kts 122°
2026-05-07 00:21 25.24871 55.36739 28 ft 26 kts 104°
2026-05-07 00:22 25.24819 55.36913 28 ft 22 kts 119°
2026-05-07 00:22 25.24735 55.37064 28 ft 24 kts 122°
2026-05-07 00:22 25.24645 55.37222 28 ft 25 kts 122°
2026-05-07 00:22 25.24551 55.37389 28 ft 26 kts 120°
2026-05-07 00:23 25.24454 55.37563 27 ft 27 kts 121°
2026-05-07 00:23 25.24353 55.37743 28 ft 28 kts 122°
2026-05-07 00:23 25.24248 55.37930 28 ft 29 kts 122°
2026-05-07 00:23 25.24140 55.38121 28 ft 30 kts 122°
2026-05-07 00:24 25.24029 55.38318 28 ft 31 kts 122°
2026-05-07 00:24 25.23916 55.38519 28 ft 32 kts 122°
2026-05-07 00:24 25.23799 55.38727 28 ft 32 kts 122°
2026-05-07 00:24 25.23679 55.38938 28 ft 33 kts 122°
2026-05-07 00:25 25.23557 55.39155 28 ft 33 kts 122°
2026-05-07 00:25 25.23483 55.39300 28 ft 13 kts 100°
2026-05-07 00:25 25.23533 55.39368 30 ft 11 kts 33°
2026-05-07 00:25 25.23596 55.39410 32 ft 10 kts 20°
2026-05-07 00:26 25.23649 55.39376 33 ft 9 kts 304°
2026-05-07 00:26 25.23652 55.39371 33 ft 0 kts 302°
2026-05-07 00:26 25.23661 55.39355 33 ft 11 kts 302°
2026-05-07 00:26 25.23830 55.39053 32 ft 84 kts 301°
2026-05-07 00:27 25.24253 55.38293 33 ft 146 kts 301°
2026-05-07 00:27 25.24865 55.37194 352 ft 172 kts 301°
2026-05-07 00:27 25.25476 55.36105 1111 ft 167 kts 301°
2026-05-07 00:27 25.26149 55.34978 1521 ft 186 kts 304°
2026-05-07 00:28 25.26925 55.33732 1724 ft 209 kts 304°
2026-05-07 00:28 25.27785 55.32347 2025 ft 226 kts 303°
2026-05-07 00:28 25.28697 55.30899 2619 ft 232 kts 306°
2026-05-07 00:28 25.29917 55.29761 3271 ft 238 kts 334°
2026-05-07 00:29 25.31554 55.29442 3977 ft 242 kts 358°
2026-05-07 00:29 25.33247 55.29481 4699 ft 245 kts
2026-05-07 00:30 25.38450 55.29676 6720 ft 253 kts 360°
2026-05-07 00:30 25.40196 55.29938 7439 ft 255 kts 16°
2026-05-07 00:30 25.41920 55.30630 7839 ft 274 kts 22°
2026-05-07 00:30 25.43718 55.31478 8320 ft 285 kts 24°
2026-05-07 00:31 25.45519 55.32335 9077 ft 287 kts 24°
2026-05-07 00:31 25.47353 55.33203 9895 ft 287 kts 24°
2026-05-07 00:31 25.49212 55.34076 10485 ft 297 kts 24°
2026-05-07 00:31 25.51176 55.34996 10780 ft 316 kts 24°
2026-05-07 00:32 25.53259 55.35969 11052 ft 334 kts 24°
2026-05-07 00:32 25.55431 55.36980 11590 ft 341 kts 25°
2026-05-07 00:32 25.57602 55.38068 12263 ft 343 kts 30°
2026-05-07 00:32 25.59595 55.39463 12978 ft 344 kts 36°
2026-05-07 00:33 25.61560 55.40991 13712 ft 346 kts 37°
2026-05-07 00:33 25.63535 55.42545 14306 ft 351 kts 37°
2026-05-07 00:33 25.65546 55.44125 14832 ft 357 kts 37°
2026-05-07 00:33 25.67505 55.45852 15376 ft 362 kts 43°
2026-05-07 00:34 25.69365 55.47759 15929 ft 367 kts 44°
2026-05-07 00:34 25.71229 55.49721 16482 ft 372 kts 44°
2026-05-07 00:34 25.73120 55.51713 17025 ft 377 kts 44°
2026-05-07 00:34 25.75011 55.53703 17603 ft 382 kts 44°
2026-05-07 00:35 25.76952 55.55743 18158 ft 387 kts 44°
2026-05-07 00:35 25.78918 55.57810 18635 ft 392 kts 44°
2026-05-07 00:35 25.80911 55.59903 19112 ft 397 kts 43°
2026-05-07 00:35 25.82930 55.62025 19652 ft 402 kts 43°
2026-05-07 00:36 25.84979 55.64153 20177 ft 406 kts 41°
2026-05-07 00:36 25.87213 55.66104 20690 ft 410 kts 35°
2026-05-07 00:36 25.89579 55.67897 21223 ft 414 kts 32°
2026-05-07 00:36 25.91993 55.69596 21741 ft 418 kts 31°
2026-05-07 00:37 25.94483 55.71299 22259 ft 422 kts 30°
2026-05-07 00:37 25.96999 55.73017 22775 ft 427 kts 30°
2026-05-07 00:37 25.99536 55.74763 23299 ft 431 kts 31°
2026-05-07 00:37 26.02177 55.76361 23726 ft 434 kts 22°
2026-05-07 00:38 26.05038 55.77445 24162 ft 436 kts 13°
2026-05-07 00:38 26.07993 55.78224 24617 ft 438 kts
2026-05-07 00:38 26.11003 55.78843 25091 ft 441 kts
2026-05-07 00:38 26.13999 55.79375 25574 ft 444 kts
2026-05-07 00:39 26.17061 55.79891 26016 ft 447 kts
2026-05-07 00:39 26.20152 55.80414 26464 ft 451 kts
2026-05-07 00:39 26.23265 55.80954 26908 ft 455 kts
2026-05-07 00:39 26.26404 55.81513 27360 ft 459 kts
2026-05-07 00:40 26.29564 55.82087 27791 ft 462 kts
2026-05-07 00:40 26.32751 55.82674 28211 ft 466 kts
2026-05-07 00:40 26.35963 55.83268 28645 ft 470 kts
2026-05-07 00:40 26.39198 55.83868 29069 ft 473 kts
2026-05-07 00:41 26.42459 55.84474 29490 ft 477 kts
2026-05-07 00:41 26.45698 55.85075 29887 ft 480 kts
2026-05-07 00:41 26.48999 55.85687 30230 ft 483 kts
2026-05-07 00:41 26.52325 55.86303 30577 ft 485 kts
2026-05-07 00:42 26.55664 55.86923 30937 ft 488 kts
2026-05-07 00:42 26.59021 55.87545 31282 ft 490 kts
2026-05-07 00:42 26.62395 55.88172 31625 ft 493 kts
2026-05-07 00:42 26.65785 55.88801 31963 ft 495 kts
2026-05-07 00:43 26.69194 55.89435 32295 ft 498 kts
2026-05-07 00:43 26.72572 55.90063 32600 ft 500 kts
2026-05-07 00:43 26.76012 55.90704 32922 ft 502 kts
2026-05-07 00:43 26.79470 55.91303 33213 ft 503 kts
2026-05-07 00:44 26.82946 55.91764 33514 ft 504 kts
2026-05-07 00:44 26.86437 55.92155 33800 ft 505 kts 360°
2026-05-07 00:44 26.89943 55.92529 34037 ft 507 kts 360°
2026-05-07 00:44 26.93466 55.92914 34273 ft 510 kts 360°
2026-05-07 00:45 26.97006 55.93316 34487 ft 512 kts 360°
2026-05-07 00:45 27.00499 55.93729 34792 ft 512 kts
2026-05-07 00:45 27.04034 55.94159 35139 ft 510 kts
2026-05-07 00:45 27.07564 55.94594 35463 ft 510 kts
2026-05-07 00:46 27.11089 55.95030 35766 ft 509 kts
2026-05-07 00:46 27.14608 55.95466 36073 ft 509 kts
2026-05-07 00:46 27.18130 55.95902 36364 ft 509 kts
2026-05-07 00:46 27.21646 55.96337 36661 ft 509 kts 360°
2026-05-07 00:47 27.23977 55.96625 36845 ft 509 kts 360°
2026-05-07 00:47 27.27493 55.97060 37137 ft 508 kts 360°
2026-05-07 00:47 27.32148 55.97635 37528 ft 507 kts 360°
2026-05-07 00:47 27.35651 55.98069 37884 ft 506 kts 360°
2026-05-07 00:48 27.39150 55.98503 38144 ft 506 kts 360°
2026-05-07 00:48 27.42650 55.98935 38385 ft 506 kts 360°
2026-05-07 00:48 27.46149 55.99369 38618 ft 506 kts 359°
2026-05-07 00:48 27.48469 55.99656 38736 ft 507 kts 359°
2026-05-07 00:49 27.51976 56.00090 38910 ft 507 kts 359°
2026-05-07 00:49 27.55479 56.00525 39132 ft 506 kts 359°
2026-05-07 00:49 27.60117 56.01101 39384 ft 506 kts 359°
2026-05-07 00:49 27.63615 56.01536 39561 ft 506 kts 360°
2026-05-07 00:50 27.67116 56.01972 39768 ft 506 kts 360°
2026-05-07 00:50 27.70615 56.02407 39853 ft 507 kts 360°
2026-05-07 00:50 27.76430 56.03132 39892 ft 506 kts 359°
2026-05-07 00:51 27.83409 56.04006 39885 ft 505 kts 359°
2026-05-07 00:51 27.91540 56.05017 39898 ft 507 kts 359°
2026-05-07 00:52 27.97409 56.05750 39927 ft 507 kts 359°
2026-05-07 00:52 28.04372 56.06622 39912 ft 507 kts 359°
2026-05-07 00:53 28.11391 56.07499 39918 ft 508 kts 359°
2026-05-07 00:53 28.18313 56.07373 39919 ft 489 kts 342°
2026-05-07 00:54 28.24912 56.05693 39920 ft 484 kts 338°
2026-05-07 00:54 28.31377 56.03754 39928 ft 484 kts 337°
2026-05-07 00:55 28.37878 56.01763 39935 ft 484 kts 337°
2026-05-07 00:55 28.44383 55.99792 39977 ft 484 kts 337°
2026-05-07 00:56 28.50899 55.97832 39951 ft 484 kts 337°
2026-05-07 00:56 28.57367 55.95889 39959 ft 484 kts 337°
2026-05-07 00:57 28.63885 55.93929 39987 ft 484 kts 337°
2026-05-07 00:57 28.70383 55.91972 39981 ft 484 kts 337°
2026-05-07 00:58 28.76908 55.90003 39993 ft 484 kts 337°
2026-05-07 00:58 28.83381 55.88048 40006 ft 484 kts 337°
2026-05-07 00:59 28.93158 55.85092 40016 ft 485 kts 337°
2026-05-07 01:00 28.99679 55.83112 40010 ft 485 kts 337°
2026-05-07 01:00 29.06208 55.81128 40014 ft 486 kts 337°
2026-05-07 01:01 29.12695 55.79154 40022 ft 486 kts 337°
2026-05-07 01:01 29.19223 55.77167 40025 ft 485 kts 336°
2026-05-07 01:02 29.25744 55.75179 40030 ft 485 kts 336°
2026-05-07 01:02 29.32259 55.73190 40027 ft 484 kts 336°
2026-05-07 01:03 29.38765 55.71201 40032 ft 484 kts 336°
2026-05-07 01:03 29.45225 55.69224 40037 ft 484 kts 336°
2026-05-07 01:04 29.51726 55.67230 40042 ft 484 kts 336°
2026-05-07 01:04 29.57953 55.64638 40047 ft 470 kts 326°
2026-05-07 01:05 29.63247 55.61725 40052 ft 468 kts 325°
2026-05-07 01:06 29.66180 55.60045 40055 ft 468 kts 324°
2026-05-07 01:07 29.71989 55.56681 40056 ft 468 kts 324°
2026-05-07 01:07 29.77770 55.53339 40063 ft 468 kts 324°
2026-05-07 01:08 29.83586 55.49988 40061 ft 467 kts 324°
2026-05-07 01:08 29.89398 55.46640 40056 ft 467 kts 324°
2026-05-07 01:09 29.95206 55.43291 40054 ft 467 kts 324°
2026-05-07 01:09 30.00972 55.39960 40056 ft 467 kts 324°
2026-05-07 01:10 30.06778 55.36609 40061 ft 466 kts 324°
2026-05-07 01:10 30.12581 55.33251 40064 ft 466 kts 324°
2026-05-07 01:11 30.18381 55.29888 40063 ft 466 kts 324°
2026-05-07 01:11 30.24135 55.26550 40060 ft 465 kts 324°
2026-05-07 01:12 30.29919 55.23191 40060 ft 465 kts 323°
2026-05-07 01:12 30.35707 55.19824 40070 ft 465 kts 323°
2026-05-07 01:13 30.41489 55.16457 40064 ft 465 kts 323°
2026-05-07 01:13 30.47268 55.13088 40063 ft 465 kts 323°
2026-05-07 01:14 30.52998 55.09742 40060 ft 464 kts 323°
2026-05-07 01:14 30.58765 55.06369 40051 ft 464 kts 323°
2026-05-07 01:15 30.64528 55.02995 40050 ft 464 kts 323°
2026-05-07 01:15 30.70289 54.99618 40062 ft 464 kts 323°
2026-05-07 01:16 30.76003 54.96264 40060 ft 463 kts 322°
2026-05-07 01:16 30.81744 54.92884 40034 ft 462 kts 322°
2026-05-07 01:17 30.87471 54.89493 40021 ft 462 kts 322°
2026-05-07 01:17 30.93193 54.86100 40025 ft 462 kts 322°
2026-05-07 01:18 30.98883 54.82725 40022 ft 462 kts 322°
2026-05-07 01:18 31.04603 54.79330 40025 ft 462 kts 322°
2026-05-07 01:19 31.10329 54.75927 40021 ft 462 kts 322°
2026-05-07 01:19 31.16052 54.72519 40026 ft 462 kts 322°
2026-05-07 01:20 31.21773 54.69108 40022 ft 462 kts 322°
2026-05-07 01:20 31.27453 54.65718 40014 ft 462 kts 322°
2026-05-07 01:21 31.33174 54.62298 40027 ft 461 kts 322°
2026-05-07 01:21 31.38884 54.58882 40023 ft 461 kts 322°
2026-05-07 01:22 31.44587 54.55464 40011 ft 461 kts 322°
2026-05-07 01:22 31.50257 54.52066 40021 ft 460 kts 322°
2026-05-07 01:23 31.55957 54.48649 40021 ft 460 kts 322°
2026-05-07 01:23 31.61661 54.45224 40013 ft 461 kts 322°
2026-05-07 01:24 31.67369 54.41792 40012 ft 461 kts 322°
2026-05-07 01:24 31.73066 54.38366 40011 ft 459 kts 321°
2026-05-07 01:25 31.78706 54.34964 40088 ft 459 kts 321°
2026-05-07 01:25 31.84396 54.31526 40102 ft 460 kts 321°
2026-05-07 01:26 31.90265 54.28383 40127 ft 475 kts 331°
2026-05-07 01:26 31.96737 54.26432 40102 ft 483 kts 336°
2026-05-07 01:27 32.03280 54.24778 40083 ft 484 kts 336°
2026-05-07 01:27 32.09879 54.23148 40049 ft 485 kts 336°
2026-05-07 01:28 32.16484 54.21489 40013 ft 485 kts 336°
2026-05-07 01:28 32.23079 54.19812 39969 ft 485 kts 336°
2026-05-07 01:29 32.29632 54.18137 39946 ft 485 kts 336°
2026-05-07 01:29 32.36224 54.16451 39936 ft 485 kts 336°
2026-05-07 01:30 32.42819 54.14758 39938 ft 484 kts 336°
2026-05-07 01:30 32.49389 54.13021 39932 ft 484 kts 335°
2026-05-07 01:31 32.55916 54.11284 39927 ft 483 kts 335°
2026-05-07 01:31 32.62474 54.09546 39919 ft 483 kts 335°
2026-05-07 01:32 32.69038 54.07807 39917 ft 483 kts 335°
2026-05-07 01:32 32.75603 54.06068 39918 ft 482 kts 336°
2026-05-07 01:33 32.82150 54.04331 39922 ft 482 kts 336°
2026-05-07 01:33 32.88693 54.02605 39922 ft 482 kts 336°
2026-05-07 01:34 32.95227 54.00969 39938 ft 483 kts 336°
2026-05-07 01:34 33.01800 53.99344 39943 ft 482 kts 336°
2026-05-07 01:35 33.08366 53.97705 39936 ft 482 kts 336°
2026-05-07 01:35 33.14882 53.96070 39936 ft 481 kts 336°
2026-05-07 01:36 33.21442 53.94432 39951 ft 483 kts 337°
2026-05-07 01:36 33.28068 53.92980 39950 ft 485 kts 338°
2026-05-07 01:37 33.34719 53.91600 39953 ft 485 kts 338°
2026-05-07 01:37 33.41316 53.90205 39952 ft 485 kts 338°
2026-05-07 01:38 33.47957 53.88774 39948 ft 484 kts 338°
2026-05-07 01:38 33.51129 53.87705 39952 ft 465 kts 326°
2026-05-07 01:38 33.53911 53.85942 39957 ft 442 kts 313°
2026-05-07 01:39 33.58583 53.81331 39967 ft 433 kts 307°
2026-05-07 01:39 33.63002 53.76471 39950 ft 433 kts 307°
2026-05-07 01:40 33.67429 53.71571 39966 ft 432 kts 306°
2026-05-07 01:40 33.71868 53.66690 39955 ft 433 kts 307°
2026-05-07 01:41 33.76316 53.61808 39948 ft 433 kts 307°
2026-05-07 01:41 33.80737 53.56954 39933 ft 433 kts 307°
2026-05-07 01:42 33.85185 53.52065 39951 ft 434 kts 307°
2026-05-07 01:42 33.89563 53.47244 39937 ft 435 kts 307°
2026-05-07 01:43 33.93682 53.42705 39937 ft 435 kts 307°
2026-05-07 01:43 33.98112 53.37815 39937 ft 435 kts 307°
2026-05-07 01:44 34.02572 53.32884 39939 ft 436 kts 307°
2026-05-07 01:44 34.07040 53.27938 39927 ft 436 kts 307°
2026-05-07 01:45 34.11507 53.22986 39929 ft 437 kts 307°
2026-05-07 01:45 34.15951 53.18049 39935 ft 438 kts 307°
2026-05-07 01:46 34.20440 53.13057 39929 ft 439 kts 307°
2026-05-07 01:46 34.24930 53.08057 39929 ft 439 kts 307°
2026-05-07 01:47 34.29414 53.03056 39942 ft 439 kts 307°
2026-05-07 01:47 34.33905 52.98037 39932 ft 441 kts 307°
2026-05-07 01:48 34.38383 52.93026 39932 ft 442 kts 307°
2026-05-07 01:48 34.42893 52.87974 39930 ft 442 kts 307°
2026-05-07 01:49 34.47405 52.82909 39928 ft 442 kts 307°
2026-05-07 01:49 34.51918 52.77836 39941 ft 443 kts 307°
2026-05-07 01:50 34.56432 52.72756 39808 ft 440 kts 307°
2026-05-07 01:50 34.58639 52.70272 39328 ft 440 kts 306°
2026-05-07 01:50 34.60895 52.67720 38727 ft 446 kts 306°
2026-05-07 01:50 34.63173 52.65144 38012 ft 449 kts 306°
2026-05-07 01:51 34.65464 52.62554 37240 ft 451 kts 306°
2026-05-07 01:51 34.67766 52.59952 36502 ft 453 kts 306°
2026-05-07 01:51 34.70075 52.57340 35768 ft 454 kts 306°
2026-05-07 01:51 34.72389 52.54721 35076 ft 455 kts 306°
2026-05-07 01:52 34.74703 52.52100 34404 ft 455 kts 306°
2026-05-07 01:52 34.76985 52.49513 33707 ft 455 kts 307°
2026-05-07 01:52 34.79296 52.46890 32944 ft 455 kts 307°
2026-05-07 01:52 34.81609 52.44260 32200 ft 455 kts 307°
2026-05-07 01:53 34.83918 52.41634 31465 ft 455 kts 308°
2026-05-07 01:53 34.86228 52.39005 30772 ft 455 kts 309°
2026-05-07 01:53 34.88544 52.36368 30088 ft 455 kts 309°
2026-05-07 01:53 34.90898 52.33788 29303 ft 456 kts 311°
2026-05-07 01:54 34.92924 52.30919 28520 ft 439 kts 295°
2026-05-07 01:54 34.94112 52.27584 27759 ft 424 kts 278°
2026-05-07 01:54 34.94696 52.24137 27029 ft 420 kts 276°
2026-05-07 01:54 34.95328 52.20653 26309 ft 421 kts 279°
2026-05-07 01:55 34.96113 52.17211 25638 ft 422 kts 281°
2026-05-07 01:55 34.97002 52.13809 24984 ft 420 kts 283°
2026-05-07 01:55 34.97946 52.10447 24359 ft 418 kts 284°
2026-05-07 01:55 34.98917 52.07111 23766 ft 416 kts 284°
2026-05-07 01:56 34.99899 52.03806 23082 ft 413 kts 285°
2026-05-07 01:56 35.00881 52.00534 22363 ft 406 kts 285°
2026-05-07 01:56 35.01828 51.97410 21704 ft 389 kts 285°
2026-05-07 01:56 35.02747 51.94381 21111 ft 372 kts 284°
2026-05-07 01:57 35.03626 51.91481 20566 ft 361 kts 284°
2026-05-07 01:57 35.04489 51.88613 20016 ft 359 kts 284°
2026-05-07 01:57 35.05347 51.85760 19469 ft 357 kts 284°
2026-05-07 01:57 35.06200 51.82928 18929 ft 355 kts 284°
2026-05-07 01:58 35.07047 51.80115 18415 ft 353 kts 284°
2026-05-07 01:58 35.07893 51.77307 17850 ft 350 kts 284°
2026-05-07 01:58 35.08730 51.74526 17245 ft 349 kts 285°
2026-05-07 01:58 35.09564 51.71753 16673 ft 347 kts 285°
2026-05-07 01:59 35.10380 51.69036 16116 ft 345 kts 285°
2026-05-07 01:59 35.11203 51.66296 15556 ft 343 kts 285°
2026-05-07 01:59 35.12020 51.63572 15008 ft 341 kts 285°
2026-05-07 01:59 35.12833 51.60863 14478 ft 339 kts 285°
2026-05-07 02:00 35.13640 51.58167 13942 ft 337 kts 285°
2026-05-07 02:00 35.14441 51.55488 13367 ft 335 kts 285°
2026-05-07 02:00 35.15237 51.52829 12783 ft 332 kts 285°
2026-05-07 02:00 35.16021 51.50210 12228 ft 321 kts 285°
2026-05-07 02:01 35.16761 51.47743 11683 ft 307 kts 286°
2026-05-07 02:01 35.17479 51.45337 11075 ft 297 kts 286°
2026-05-07 02:01 35.18178 51.42987 10362 ft 292 kts 286°
2026-05-07 02:01 35.18868 51.40666 9623 ft 289 kts 286°
2026-05-07 02:02 35.19549 51.38366 8859 ft 286 kts 286°
2026-05-07 02:02 35.20301 51.36123 8081 ft 286 kts 296°
2026-05-07 02:02 35.21611 51.34308 7344 ft 287 kts 319°
2026-05-07 02:02 35.23243 51.32899 6612 ft 287 kts 327°
2026-05-07 02:03 35.25092 51.32130 5873 ft 287 kts 355°
2026-05-07 02:03 35.27004 51.32640 5313 ft 281 kts 28°
2026-05-07 02:03 35.28636 51.33814 5073 ft 261 kts 30°
2026-05-07 02:03 35.30119 51.34935 5066 ft 241 kts 30°
2026-05-07 02:04 35.31450 51.36004 5080 ft 217 kts 32°
2026-05-07 02:04 35.32734 51.36850 5125 ft 205 kts 18°
2026-05-07 02:04 35.34117 51.37104 5149 ft 201 kts 354°
2026-05-07 02:04 35.35386 51.36471 5151 ft 199 kts 321°
2026-05-07 02:05 35.36160 51.35081 5147 ft 200 kts 291°
2026-05-07 02:05 35.36622 51.33498 5150 ft 200 kts 288°
2026-05-07 02:05 35.37066 51.31884 5146 ft 199 kts 288°
2026-05-07 02:05 35.37505 51.30287 5147 ft 197 kts 289°
2026-05-07 02:06 35.37937 51.28689 5153 ft 198 kts 288°
2026-05-07 02:06 35.38373 51.27097 5107 ft 193 kts 289°
2026-05-07 02:06 35.38814 51.25608 4774 ft 182 kts 290°
2026-05-07 02:06 35.39222 51.24169 4456 ft 172 kts 289°
2026-05-07 02:07 35.39570 51.22837 4269 ft 156 kts 290°
2026-05-07 02:07 35.40219 51.20500 3888 ft 140 kts 290°
2026-05-07 02:07 35.40546 51.19372 3714 ft 141 kts 290°
2026-05-07 02:08 35.40862 51.18234 3547 ft 141 kts 288°
2026-05-07 02:08 35.41170 51.17093 3368 ft 140 kts 291°
2026-05-07 02:08 35.41479 51.15995 3259 ft 125 kts 289°
2026-05-07 02:08 35.41713 51.15158 3270 ft 83 kts 288°
2026-05-07 02:09 35.41853 51.14662 3272 ft 40 kts 289°
2026-05-07 02:09 35.41898 51.14451 3272 ft 14 kts 252°
2026-05-07 02:09 35.41820 51.14388 3270 ft 15 kts 202°
2026-05-07 02:09 35.41718 51.14345 3274 ft 16 kts 197°
2026-05-07 02:10 35.41648 51.14358 3274 ft 10 kts 134°
2026-05-07 02:10 35.41611 51.14454 3271 ft 17 kts 109°
2026-05-07 02:10 35.41569 51.14607 3269 ft 20 kts 109°
2026-05-07 02:10 35.41520 51.14781 3269 ft 23 kts 108°
2026-05-07 02:11 35.41467 51.14975 3265 ft 25 kts 109°
2026-05-07 02:11 35.41416 51.15149 3266 ft 14 kts 114°
2026-05-07 02:11 35.41361 51.15178 3264 ft 10 kts 193°
2026-05-07 02:11 35.41283 51.15149 3266 ft 10 kts 198°
2026-05-07 02:12 35.41220 51.15153 3266 ft 9 kts 143°
2026-05-07 02:12 35.41193 51.15232 3265 ft 12 kts 109°
2026-05-07 02:12 35.41174 51.15301 3261 ft 7 kts 108°
2026-05-07 02:12 35.41156 51.15367 3261 ft 7 kts 108°
2026-05-07 02:13 35.41138 51.15392 3264 ft 3 kts 160°
2026-05-07 02:13 35.41119 51.15388 3264 ft 3 kts 189°
2026-05-07 02:13 35.41090 51.15380 3264 ft 5 kts 195°
2026-05-07 02:13 35.41076 51.15375 3264 ft 0 kts 195°